Regional Weather Roundup
Issued by NWS Green Bay, WI

Home | Current Version | Previous Version | Graphics & Text | Print | Product List | Glossary Off
Versions: 1 2 3 4 5 6 7 8 9 10 11 12 13 14 15 16 17 18 19 20 21 22 23 24 25 26 27 28 29 30 31 32 33 34 35 36 37 38 39 40 41 42 43 44 45 46 47 48 49 50

000
ASUS43 KGRB 300711
RWRGRB

NORTH-CENTRAL AND NORTHEAST WISCONSIN REGIONAL WEATHER ROUNDUP
NATIONAL WEATHER SERVICE GREEN BAY WI
200 AM CDT THU MAR 30 2017

WIZ005-009-010>012-018-019-300800-
NORTH CENTRAL WISCONSIN

CITY           SKY/WX    TMP DP  RH WIND       PRES   REMARKS
IRONWOOD       CLOUDY    36  28  73 NE3       30.11F
MANITOWISH WTR CLOUDY    36  23  61 SE6       30.11F
ARBOR VITAE    CLOUDY    37  24  60 SE7       30.10F
EAGLE RIVER    CLOUDY    33  21  61 E6        30.11F
LAND O LAKES   CLOUDY    35  24  65 SE6       30.13F
RHINELANDER    CLOUDY    35  23  61 E8        30.10F
PHILLIPS       CLOUDY    36  27  70 E3        30.09S
ANTIGO         CLOUDY    33  26  77 E8        30.08F
TOMAHAWK       CLOUDY    35  23  63 CALM      30.09F
MERRILL        CLOUDY    35  26  68 E8        30.08F
$$

WIZ013-073-300800-
NORTHEAST WISCONSIN

CITY           SKY/WX    TMP DP  RH WIND       PRES   REMARKS
IRON MOUNTAIN  CLOUDY    33  24  69 N3        30.14F
MARINETTE      LGT RAIN  34  29  82 N3        30.15F
OCONTO         CLOUDY    34  29  83 NE5       30.13F
$$

WIZ017-030-035>037-045-300800-
CENTRAL WISCONSIN

CITY           SKY/WX    TMP DP  RH WIND       PRES   REMARKS
MEDFORD        CLOUDY    34  28  78 E12       30.06F
WAUSAU         CLOUDY    35  28  75 E8        30.07F
MOSINEE        FLURRIES  32  32 100 E10       30.08F
MARSHFIELD     CLOUDY    34  32  92 E13       30.05F
WISC RAPIDS    FLURRIES  34  34 100 E7        30.07F
STEVENS POINT  HVY RAIN  32  32 100 E8        30.08F
WAUPACA        DRIZZLE   37  35  93 NE5       30.09S
SHAWANO        CLOUDY    37  31  78 NE8       30.12F
CLINTONVILLE   LGT RAIN  34  32  93 NE5       30.11F
WAUTOMA        CLOUDY    36  33  89 E10       30.07F
$$

WIZ038-039-048-051-300800-
FOX VALLEY

CITY           SKY/WX    TMP DP  RH WIND       PRES   REMARKS
NWS GREEN BAY  LGT RAIN  35  34  96 NE8       30.12F
APPLETON       CLOUDY    34  34 100 NE9       30.07F
OSHKOSH        CLOUDY    37  34  89 E10       30.05F
FOND DU LAC    CLOUDY    39  33  79 E10       30.05F
$$

WIZ022-050-052-300800-
EAST CENTRAL WISCONSIN

CITY           SKY/WX    TMP DP  RH WIND       PRES   REMARKS
EPHRAIM        CLOUDY    37  33  88 E8        30.14S
WASHINGTON ISL CLOUDY    37  28  72 E12       30.16F
STURGEON BAY   CLOUDY    35  33  92 CALM      30.10F
MANITOWOC      LGT RAIN  38  34  85 E10       30.12F
SHEBOYGAN      CLOUDY    38  32  79 E10       30.08F
$$

LMZ563-521-522-541>543-300800-
LAKESHORE

STATION/POSITION TIME  TEMP    WIND        PRES    VSBY  WAVE
                       AIR SEA DIR/SP/G                  HT/PER
                 (UTC) (F)     (DEG/KT/KT) (MB)    (MI)  (FT/S)
SHEBOYGAN LKSHOR 0700   38      90/ 12/ 13 1019.0F
KEWAUNEE LKSHORE 0648          120/  9/ 13   N/A
NORTHPORT PIER   0640   36     100/ 10/ 12 1021.3F
CHAMBERS ISLAND  0640   34      20/  6/  7 1020.7F
MENOMINEE LKSHOR 0648           10/ 11/ 13   N/A
$$



USA.gov is the U.S. government's official web portal to all federal, state and local government web resources and services.